| time (UTC) | temp F | wind direction | speed MPH | gust MPH | rain 1hr in | rain 24hr in | rain mn in | humidity % | barometer mb |
| 20260504044536 | 40 | 181 | 9.0 | 21.0 | 0.03 | 0.56 | 0.04 | 96 | 974.2 |
| 20260504043045 | 40 | 74 | 3.0 | 12.0 | 0.02 | 0.56 | 0.03 | 96 | 975.0 |
| 20260504041534 | 40 | 95 | 5.0 | 14.0 | 0.02 | 0.56 | 0.02 | 96 | 975.7 |
| 20260504040028 | 40 | 348 | 3.0 | 11.0 | 0.02 | 0.55 | 0.02 | 95 | 976.5 |
| 20260504034526 | 40 | 62 | 5.0 | 19.0 | 0.01 | 0.54 | 0.01 | 95 | 976.6 |
| 20260504033023 | 40 | 108 | 9.0 | 24.0 | 0.01 | 0.54 | 0.01 | 95 | 977.1 |
| 20260504031519 | 40 | 101 | 11.0 | 25.0 | 0.00 | 0.54 | 0.00 | 95 | 978.9 |
| 20260504030017 | 41 | 170 | 9.0 | 27.0 | 0.01 | 0.54 | 0.00 | 94 | 979.3 |
| 20260504024514 | 41 | 137 | 10.0 | 26.0 | 0.01 | 0.54 | 0.54 | 94 | 980.0 |
| 20260504023011 | 42 | 111 | 11.0 | 25.0 | 0.01 | 0.54 | 0.54 | 94 | 980.6 |
| 20260504021511 | 42 | 53 | 4.0 | 15.0 | 0.01 | 0.54 | 0.54 | 95 | 981.8 |
| 20260504020006 | 43 | 167 | 3.0 | 13.0 | 0.01 | 0.53 | 0.53 | 96 | 982.6 |
| 20260504014502 | 43 | 163 | 5.0 | 12.0 | 0.02 | 0.53 | 0.53 | 97 | 983.0 |
| 20260504013002 | 43 | 61 | 6.0 | 13.0 | 0.02 | 0.53 | 0.53 | 98 | 983.2 |
| 20260504011559 | 43 | 69 | 8.0 | 16.0 | 0.03 | 0.53 | 0.53 | 98 | 984.0 |
| 20260504010101 | 42 | 136 | 3.0 | 20.0 | 0.03 | 0.52 | 0.52 | 98 | 985.0 |
| 20260504004552 | 41 | 67 | 8.0 | 14.0 | 0.04 | 0.51 | 0.51 | 98 | 985.7 |
| 20260504003050 | 41 | 44 | 9.0 | 19.0 | 0.04 | 0.50 | 0.50 | 98 | 986.3 |
| 20260504001556 | 41 | 16 | 7.0 | 24.0 | 0.08 | 0.50 | 0.50 | 98 | 987.0 |
| 20260504000046 | 40 | 78 | 10.0 | 15.0 | 0.11 | 0.49 | 0.49 | 98 | 988.1 |
| 20260503234543 | 39 | 63 | 9.0 | 21.0 | 0.13 | 0.47 | 0.47 | 98 | 988.3 |
| 20260503233040 | 39 | 54 | 8.0 | 18.0 | 0.17 | 0.46 | 0.46 | 98 | 989.6 |
| 20260503231539 | 39 | 67 | 6.0 | 19.0 | 0.13 | 0.41 | 0.41 | 98 | 990.1 |
| 20260503230057 | 39 | 63 | 10.0 | 18.0 | 0.13 | 0.38 | 0.38 | 98 | 991.2 |
| 20260503224533 | 39 | 52 | 8.0 | 14.0 | 0.12 | 0.35 | 0.35 | 98 | 992.1 |
| 20260503223031 | 39 | 86 | 10.0 | 16.0 | 0.10 | 0.30 | 0.30 | 98 | 993.3 |
| 20260503221532 | 38 | 78 | 6.0 | 13.0 | 0.10 | 0.27 | 0.27 | 98 | 994.3 |
| 20260503220032 | 38 | 50 | 8.0 | 17.0 | 0.11 | 0.24 | 0.24 | 98 | 995.0 |
| 20260503214533 | 38 | 83 | 7.0 | 14.0 | 0.15 | 0.23 | 0.23 | 98 | 995.1 |
| 20260503213031 | 38 | 46 | 4.0 | 16.0 | 0.13 | 0.20 | 0.20 | 98 | 995.8 |
| 20260503211521 | 37 | 86 | 6.0 | 17.0 | 0.11 | 0.17 | 0.17 | 97 | 996.7 |
| 20260503210020 | 37 | 59 | 8.0 | 16.0 | 0.08 | 0.13 | 0.13 | 97 | 996.2 |
| 20260503204524 | 37 | 69 | 6.0 | 18.0 | 0.03 | 0.08 | 0.08 | 97 | 997.5 |
| 20260503203015 | 37 | 42 | 8.0 | 18.0 | 0.02 | 0.06 | 0.06 | 97 | 997.6 |
| 20260503201513 | 38 | 55 | 8.0 | 23.0 | 0.02 | 0.06 | 0.06 | 97 | 998.9 |
| 20260503200010 | 38 | 79 | 7.0 | 17.0 | 0.02 | 0.06 | 0.06 | 97 | 999.5 |
| 20260503194507 | 38 | 55 | 11.0 | 23.0 | 0.02 | 0.05 | 0.05 | 96 | 1000.1 |
| 20260503193007 | 39 | 57 | 9.0 | 20.0 | 0.02 | 0.04 | 0.04 | 96 | 1001.1 |
| 20260503191502 | 39 | 59 | 9.0 | 18.0 | 0.03 | 0.03 | 0.03 | 95 | 1001.7 |
| 20260503190100 | 40 | 39 | 8.0 | 20.0 | 0.03 | 0.03 | 0.03 | 95 | 1002.9 |
| 20260503184555 | 40 | 24 | 7.0 | 14.0 | 0.03 | 0.03 | 0.03 | 94 | 1003.8 |
| 20260503183057 | 41 | 73 | 7.0 | 13.0 | 0.02 | 0.02 | 0.02 | 92 | 1005.2 |
| 20260503181559 | 41 | 30 | 8.0 | 15.0 | 0.00 | 0.00 | 0.00 | 90 | 1006.0 |
| 20260503180051 | 43 | 20 | 6.0 | 14.0 | 0.00 | 0.00 | 0.00 | 87 | 1006.4 |
| 20260503174548 | 44 | 26 | 6.0 | 15.0 | 0.00 | 0.00 | 0.00 | 84 | 1006.9 |
| 20260503173042 | 45 | 34 | 3.0 | 10.0 | 0.00 | 0.00 | 0.00 | 83 | 1007.8 |
| 20260503171539 | 45 | 71 | 5.0 | 12.0 | 0.00 | 0.00 | 0.00 | 83 | 1008.5 |
| 20260503120107 | 42 | 344 | 2.0 | 8.0 | 0.00 | 0.00 | 0.00 | 97 | 1013.9 |
| 20260503081527 | 33 | 157 | 0.0 | 2.0 | 0.00 | 0.01 | 0.00 | 97 | 1015.9 |
| 20260503071520 | 35 | 157 | 1.0 | 2.0 | 0.00 | 0.01 | 0.00 | 98 | 1016.3 |
| 20260503054613 | 37 | 197 | 0.0 | 4.0 | 0.00 | 0.35 | 0.00 | 98 | 1016.7 |